Torna al catalogo

OPS 4412

TRANSIT 9

AttivoNavigazionePO
NORAD 801·PAYLOAD·🇺🇸 United States

Lanciato Jun 4, 1964 da Vandenberg Space Force Base

Loading…

Prossimi Passaggi (prossime 24 ore)

TLE

AggiornatoSource: Space-Track

Epoca: Sep 14, 2026, 06:25 UTC

1 00801U 64026A   26257.26800014  .00000335  00000-0  15933-3 0  9995
2 00801  90.4616 192.5903 0049551  94.8669 265.8180 14.17135686198765

Traccia OPS 4412 in tempo reale con AllMySat

Download on the App Store